Regional Weather Roundup
Issued by NWS

Home | Current Version | Previous Version | Text Only | Print | Product List | Glossary On
Versions: 1 2 3 4 5 6 7 8 9 10 11 12 13 14 15 16 17 18 19 20 21 22 23 24 25 26 27 28 29 30 31 32 33 34 35 36 37 38 39 40 41 42 43 44 45 46 47 48 49 50
699
ASPQ40 PGUM 211212
RWRPQ
WEATHER ROUNDUP FOR THE MARIANAS AND MICRONESIA
NATIONAL WEATHER SERVICE TIYAN GU
1000 PM CHST TUE NOV 21 2017

GUZ001>004-211300-
MARIANA ISLANDS-

CITY           SKY/WX    TMP DP  RH WIND       PRES   REMARKS
GUAM AIRPORT   CLEAR     81  77  89 NE7       29.85R
ANDERSEN AFB   PTCLDY    81  75  83 NE13      29.86R
ROTA AIRPORT   NOT AVBL
TINIAN AP      NOT AVBL
SAIPAN AP      LGT RAIN  79  79 100 E8        29.85S

$$

PMZ161-211300-
REPUBLIC OF PALAU-

CITY           SKY/WX    TMP DP  RH WIND       PRES   REMARKS
KOROR AP       MOCLDY    81  75  83 E3        29.74R
KOROR WSO      MOCLDY    82  75  78 NW9       29.76R

$$

PMZ171>174-211300-
FEDERATED STATES OF MICRONESIA-

CITY           SKY/WX    TMP DP  RH WIND       PRES   REMARKS
YAP AIRPORT    MOCLDY    81  77  89 VRB6      29.77S
CHUUK AP       LGT RAIN  77  77 100 NE12      29.73R
POHNPEI AP     NOT AVBL
POHNPEI WSO    CLOUDY    77  75  94 SE5       29.79F
KOSRAE AP      NOT AVBL

$$

PMZ181-211300-
REPUBLIC OF THE MARSHALL ISLANDS-

CITY           SKY/WX    TMP DP  RH WIND       PRES   REMARKS
KWAJALEIN AP   PTCLDY    82  73  74 NE13      29.78S
MAJURO AP      NOT AVBL
MAJURO WSO     CLOUDY    82  75  78 E7        29.75F

$$





USA.gov is the U.S. government's official web portal to all federal, state and local government web resources and services.